When you browse on this site, cookies collect data to enhance your experience and personalize the content and advertising you see.
Visit our Privacy Policy to learn more. By continuing to use the site, you agree to this use of cookies and data.
  • In Spain
  • List of Countries
  • For 7 days
  • Water Temperature
  • Weather Map
  • Weather Widgets
  • user-avatar
    Login

    Hourly Weather Kipungo

    Today, 8 December, Sunday

    Time Temperature Precipitation Wind Pressure Humidity
    00:00 +19°C° 0 mm 3 mps 652 mmHg 90%
    01:00 +18°C° 0 mm 3 mps 652 mmHg 92%
    02:00 +18°C° 0 mm 2 mps 652 mmHg 92%
    03:00 +18°C° 0 mm 2 mps 651 mmHg 91%
    04:00 +18°C° 0 mm 2 mps 651 mmHg 91%
    05:00 +19°C° 0 mm 1 mps 652 mmHg 88%
    06:00 +20°C° 0 mm 1 mps 652 mmHg 86%
    07:00 +20°C° 0 mm 1 mps 653 mmHg 83%
    08:00 +23°C° 0 mm 1 mps 653 mmHg 72%
    09:00 +25°C° 0 mm 1 mps 654 mmHg 61%
    10:00 +28°C° 0 mm 1 mps 654 mmHg 50%
    11:00 +29°C° 0 mm 1 mps 654 mmHg 48%
    12:00 +29°C° 0 mm 2 mps 653 mmHg 45%
    13:00 +30°C° 0 mm 2 mps 653 mmHg 42%
    14:00 +30°C° 0 mm 2 mps 652 mmHg 45%
    15:00 +29°C° 0 mm 3 mps 652 mmHg 47%
    16:00 +28°C° 0 mm 3 mps 651 mmHg 50%
    17:00 +26°C° 0 mm 3 mps 651 mmHg 56%
    18:00 +25°C° 0 mm 2 mps 651 mmHg 61%
    19:00 +23°C° 0 mm 2 mps 651 mmHg 66%
    20:00 +21°C° 0 mm 2 mps 651 mmHg 68%
    21:00 +20°C° 0 mm 2 mps 651 mmHg 69%
    22:00 +20°C° 0 mm 2 mps 652 mmHg 70%
    23:00 +19°C° 0 mm 2 mps 651 mmHg 71%

    Tomorrow, 9 December, Monday

    Time Temperature Precipitation Wind Pressure Humidity
    00:00 +19°C° 0 mm 2 mps 651 mmHg 72%
    01:00 +18°C° 0 mm 2 mps 651 mmHg 73%
    02:00 +18°C° 0 mm 2 mps 651 mmHg 76%
    03:00 +17°C° 0 mm 2 mps 651 mmHg 78%
    04:00 +17°C° 0 mm 2 mps 650 mmHg 81%
    05:00 +18°C° 0 mm 2 mps 651 mmHg 77%
    06:00 +19°C° 0 mm 1 mps 652 mmHg 73%
    07:00 +20°C° 0 mm 1 mps 652 mmHg 70%
    08:00 +22°C° 0 mm 1 mps 653 mmHg 59%
    09:00 +25°C° 0 mm 1 mps 653 mmHg 47%
    10:00 +27°C° 0 mm 1 mps 654 mmHg 36%
    11:00 +28°C° 0 mm 2 mps 654 mmHg 33%
    12:00 +29°C° 0 mm 3 mps 653 mmHg 30%
    13:00 +30°C° 0 mm 3 mps 653 mmHg 28%
    14:00 +29°C° 0 mm 4 mps 653 mmHg 29%
    15:00 +29°C° 0 mm 4 mps 652 mmHg 31%
    16:00 +28°C° 0 mm 4 mps 651 mmHg 33%
    17:00 +26°C° 0 mm 4 mps 651 mmHg 40%
    18:00 +24°C° 0 mm 3 mps 651 mmHg 47%
    19:00 +20°C° 0 mm 2 mps 651 mmHg 53%
    20:00 +20°C° 0 mm 2 mps 651 mmHg 55%
    21:00 +19°C° 0 mm 2 mps 652 mmHg 57%
    22:00 +18°C° 0 mm 2 mps 652 mmHg 59%
    23:00 +17°C° 0 mm 2 mps 652 mmHg 64%

    Day after tomorrow, 10 December, Tuesday

    Time Temperature Precipitation Wind Pressure Humidity
    00:00 +17°C° 0 mm 2 mps 651 mmHg 69%
    01:00 +16°C° 0 mm 2 mps 651 mmHg 75%
    02:00 +16°C° 0 mm 2 mps 651 mmHg 79%
    03:00 +15°C° 0 mm 1 mps 651 mmHg 84%
    04:00 +15°C° 0 mm 1 mps 651 mmHg 88%
    05:00 +16°C° 0 mm 1 mps 651 mmHg 85%
    06:00 +18°C° 0 mm 1 mps 652 mmHg 82%
    07:00 +19°C° 0 mm 1 mps 652 mmHg 79%
    08:00 +21°C° 0 mm 1 mps 653 mmHg 65%
    09:00 +24°C° 0 mm 2 mps 653 mmHg 50%
    10:00 +27°C° 0 mm 2 mps 654 mmHg 36%
    11:00 +27°C° 0 mm 3 mps 654 mmHg 33%
    12:00 +28°C° 0 mm 3 mps 654 mmHg 30%
    13:00 +29°C° 0 mm 4 mps 653 mmHg 28%
    14:00 +29°C° 0 mm 4 mps 653 mmHg 30%
    15:00 +28°C° 0 mm 4 mps 652 mmHg 33%
    16:00 +28°C° 0 mm 4 mps 652 mmHg 36%
    17:00 +26°C° 0 mm 3 mps 652 mmHg 44%
    18:00 +22°C° 0 mm 3 mps 652 mmHg 51%
    19:00 +20°C° 0 mm 2 mps 651 mmHg 59%
    20:00 +19°C° 0 mm 2 mps 652 mmHg 63%
    21:00 +18°C° 0 mm 2 mps 652 mmHg 66%
    22:00 +17°C° 0 mm 2 mps 652 mmHg 69%
    23:00 +17°C° 0 mm 2 mps 652 mmHg 74%

    11 December, Wednesday

    Time Temperature Precipitation Wind Pressure Humidity
    00:00 +16°C° 0 mm 1 mps 652 mmHg 79%
    01:00 +15°C° 0 mm 1 mps 652 mmHg 84%
    02:00 +15°C° 0 mm 1 mps 651 mmHg 87%
    03:00 +15°C° 0 mm 1 mps 651 mmHg 90%
    04:00 +14°C° 0 mm 1 mps 651 mmHg 93%
    05:00 +15°C° 0 mm 1 mps 652 mmHg 86%
    06:00 +18°C° 0 mm 1 mps 652 mmHg 80%
    07:00 +17°C° 0 mm 0 mps 653 mmHg 73%
    08:00 +20°C° 0 mm 0 mps 654 mmHg 59%
    09:00 +26°C° 0 mm 1 mps 654 mmHg 45%
    10:00 +29°C° 0 mm 1 mps 655 mmHg 31%
    11:00 +30°C° 0 mm 2 mps 655 mmHg 27%
    12:00 +30°C° 0 mm 2 mps 654 mmHg 24%
    13:00 +31°C° 0 mm 3 mps 654 mmHg 20%
    14:00 +31°C° 0 mm 3 mps 653 mmHg 22%
    15:00 +30°C° 0 mm 3 mps 653 mmHg 24%
    16:00 +30°C° 0 mm 4 mps 652 mmHg 26%
    17:00 +27°C° 0 mm 3 mps 652 mmHg 33%
    18:00 +25°C° 0 mm 3 mps 652 mmHg 40%
    19:00 +21°C° 0 mm 2 mps 652 mmHg 48%
    20:00 +20°C° 0 mm 2 mps 652 mmHg 52%
    21:00 +20°C° 0 mm 2 mps 652 mmHg 57%
    22:00 +19°C° 0 mm 3 mps 653 mmHg 62%
    23:00 +18°C° 0 mm 2 mps 652 mmHg 67%

    12 December, Thursday

    Time Temperature Precipitation Wind Pressure Humidity
    00:00 +17°C° 0 mm 2 mps 652 mmHg 72%
    01:00 +17°C° 0 mm 2 mps 652 mmHg 78%
    02:00 +16°C° 0 mm 1 mps 652 mmHg 79%
    03:00 +16°C° 0 mm 1 mps 652 mmHg 81%
    04:00 +15°C° 0 mm 1 mps 651 mmHg 83%
    05:00 +18°C° 0 mm 1 mps 652 mmHg 77%
    06:00 +17°C° 0 mm 0 mps 652 mmHg 72%
    07:00 +18°C° 0 mm 0 mps 653 mmHg 67%
    08:00 +22°C° 0 mm 0 mps 654 mmHg 55%
    09:00 +26°C° 0 mm 0 mps 655 mmHg 43%
    10:00 +30°C° 0 mm 0 mps 656 mmHg 32%
    11:00 +30°C° 0 mm 0 mps 655 mmHg 29%
    12:00 +33°C° 0 mm 1 mps 655 mmHg 26%
    13:00 +34°C° 0 mm 1 mps 655 mmHg 24%
    14:00 +33°C° 0 mm 1 mps 654 mmHg 24%
    15:00 +32°C° 0 mm 2 mps 653 mmHg 25%
    16:00 +31°C° 0 mm 2 mps 652 mmHg 26%
    17:00 +29°C° 0 mm 2 mps 652 mmHg 33%
    18:00 +26°C° 0 mm 2 mps 652 mmHg 40%
    19:00 +24°C° 0 mm 2 mps 652 mmHg 47%
    20:00 +23°C° 0 mm 2 mps 652 mmHg 50%
    21:00 +21°C° 0 mm 2 mps 653 mmHg 54%
    22:00 +20°C° 0 mm 2 mps 653 mmHg 57%
    23:00 +19°C° 0 mm 2 mps 653 mmHg 60%

    13 December, Friday

    Time Temperature Precipitation Wind Pressure Humidity
    00:00 +19°C° 0 mm 2 mps 652 mmHg 64%
    01:00 +18°C° 0 mm 2 mps 652 mmHg 67%
    02:00 +19°C° 0 mm 1 mps 652 mmHg 69%
    03:00 +18°C° 0 mm 1 mps 652 mmHg 71%
    04:00 +18°C° 0 mm 1 mps 652 mmHg 73%
    05:00 +19°C° 0 mm 1 mps 652 mmHg 69%
    06:00 +20°C° 0 mm 1 mps 653 mmHg 65%
    07:00 +22°C° 0 mm 1 mps 654 mmHg 61%
    08:00 +24°C° 0 mm 1 mps 654 mmHg 51%
    09:00 +27°C° 0 mm 2 mps 655 mmHg 41%
    10:00 +30°C° 0 mm 2 mps 655 mmHg 31%
    11:00 +32°C° 0 mm 2 mps 655 mmHg 28%
    12:00 +34°C° 0 mm 2 mps 655 mmHg 26%
    13:00 +35°C° 0 mm 1 mps 654 mmHg 24%
    14:00 +35°C° 0 mm 1 mps 654 mmHg 24%
    15:00 +34°C° 0 mm 1 mps 653 mmHg 24%
    16:00 +34°C° 0 mm 1 mps 653 mmHg 24%
    17:00 +32°C° 0 mm 1 mps 653 mmHg 29%
    18:00 +29°C° 0 mm 1 mps 652 mmHg 33%
    19:00 +27°C° 0 mm 1 mps 652 mmHg 38%
    20:00 +26°C° 0 mm 2 mps 653 mmHg 43%
    21:00 +24°C° 0 mm 2 mps 653 mmHg 48%
    22:00 +23°C° 0 mm 2 mps 653 mmHg 53%
    23:00 +21°C° 0 mm 2 mps 653 mmHg 56%
    Show more